Portada
METAR-TAF:

METAR-TAF

Aeroports :

Paraburdoo, Austràlia

latitud: 23-10-17S, longitud: 117-44-44E, altitud: 429 m

Observació

L'informe es va fer fa 50 minuts, a les 22:00 UTC
Vent 11 kt del Sud/Sud-Est
Temperatura 24°C
Humitat 25%
Pressió 1011 hPa
Visibilitat 10 km o més

METAR: YPBO 192200Z AUTO 16011KT 9999 // NCD 24/03 Q1011

Hora: 06:50 (22:50 UTC)


TAF: manca

Observacions i pronòstics meteorològics de més de 4000 aeroports (METAR i TAF).

Les estacions disponibles són els punts grocs i vermells al mapa.

Posi el ratolí al punt desitjat per veure el nom de l'estació.

Feu clic per veure les observacions i els pronòstics meteorològics.

Per canviar el mapa: feu clic els botons verds amb una creu de color negre per apropar; al botó verd amb un guió per allunyar la imatge; o en les fletxes verdes per a mapes adjacents.


METAR-TAF: